[[{"header":{"parameterUnit":"m.s-1","parameterCategory":1,"la1":30.2992,"la2":30.254,"lo1":-89.0895,"lo2":-89.0443,"dy":0.0025,"dx":0.0025,"nx":19,"ny":19,"refTime":"2026-03-20T21:00:00:Z","depth":0,"parameterNumber":2,"parameterNumberName":"U-component_of_WINDS"},"data":[0,0,0,2.9501,2.9506,2.9723,2.9724,3.0028,3.0031,0,0,0,0,0,0,0,0,0,0,0,2.945,2.9453,2.95,2.9506,2.9723,2.9724,3.0027,3.0031,0,0,0,0,0,0,0,0,0,0,0,2.9449,2.9452,2.9455,2.9507,2.9723,2.9724,3.0026,2.9854,0,0,0,0,0,0,0,0,0,0,2.9639,2.9605,2.9452,2.9455,2.9509,2.9723,2.9724,2.9845,2.9865,2.994,0,3.0008,0,3.0024,3.0052,3.0054,0,0,0,2.9497,2.9589,2.9635,2.9456,2.9511,2.9723,2.9623,2.9856,2.9878,2.9966,3.0012,3.0023,3.0029,3.0054,3.0056,3.0516,3.0518,0,0,2.9485,2.9498,2.9619,2.965,2.9616,2.9616,2.963,2.9869,2.9922,3.0014,3.003,3.0034,3.0057,3.0059,3.0513,3.0516,0,0,0,2.9457,2.949,2.9529,2.9638,2.9675,2.9622,2.9638,2.9911,2.9922,3.0033,3.0038,3.0059,3.0063,3.051,3.0514,3.0655,0,0,0,2.9449,2.9473,2.9524,2.9535,2.9671,2.9795,2.9676,2.9906,2.9932,3.0036,3.0059,3.0066,3.0507,3.0512,3.0645,3.0721,0,0,0,2.9432,2.9471,2.9507,2.9535,2.9628,2.9791,2.9816,2.9911,2.9936,3.0054,3.0067,3.0505,3.0511,3.0636,3.0706,3.0845,0,0,0,2.9417,2.9631,2.9509,2.9749,2.9627,2.9875,2.9814,3.0,3.0117,3.006,3.0508,3.0514,3.0633,3.0697,3.0836,3.0966,3.1021,0,0,2.9694,2.9664,2.9804,2.9702,2.9976,2.9841,3.0136,3.0233,3.0233,3.0422,3.0433,3.0648,3.0705,3.0843,3.1322,3.1366,0,0,0,2.9897,2.9998,3.0067,3.0178,3.0255,3.0328,3.0377,3.0412,3.0571,3.0332,3.0735,3.0768,3.0849,3.0911,3.0948,3.1017,3.0542,3.0542,3.0541,3.0309,3.0295,3.0526,3.0538,3.0647,3.0694,3.0781,3.0837,3.0794,3.0889,3.0946,3.1238,3.1311,3.1339,3.1411,3.1012,3.1013,3.1013,3.1014,3.0713,3.0854,3.0788,3.0988,3.0973,3.1142,3.1196,3.1159,3.1315,3.1195,3.1265,3.1137,3.1387,3.1449,3.1024,3.1022,3.1021,3.102,3.1019,3.0983,3.1048,3.1085,3.1243,3.1367,3.1372,3.1524,3.1505,3.1488,3.1558,3.1616,3.1614,3.161,3.1586,3.1587,3.1588,3.1589,3.159,3.1591,3.1248,3.1286,3.1415,3.1513,3.1581,3.1668,3.1716,3.1784,3.1853,3.1827,3.1828,3.1776,3.1413,3.1323,3.1606,3.1604,3.1602,3.16,3.1599,3.1666,3.1568,3.1768,3.1837,3.1949,3.2073,3.2045,3.2183,3.2236,3.2311,3.2243,3.1977,3.1947,3.1917,3.1843,3.2244,3.2244,3.2244,3.2244,3.1895,3.1876,3.2076,3.2186,3.2291,3.2286,3.2513,3.2552,3.2578,3.261,3.2548,3.2447,3.2417,3.2405,3.2365,3.2295,3.2802,3.2803,3.2803,3.2152,3.2142,3.234,3.236,3.2447,3.2521,3.2735,3.2865,3.2873,3.2825,3.2634,3.2611,3.2447,3.2395,3.2345,3.2283,3.2155,0,0]},{"header":{"parameterUnit":"m.s-1","parameterCategory":1,"la1":30.2992,"la2":30.254,"lo1":-89.0895,"lo2":-89.0443,"dy":0.0025,"dx":0.0025,"nx":19,"ny":19,"refTime":"2026-03-20T21:00:00:Z","depth":0,"parameterNumber":3,"parameterNumberName":"V-component_of_WINDS"},"data":[0,0,0,5.5126,5.5132,5.5422,5.5423,5.5789,5.5792,0,0,0,0,0,0,0,0,0,0,0,5.5041,5.5044,5.5125,5.5132,5.5422,5.5423,5.5788,5.5792,0,0,0,0,0,0,0,0,0,0,0,5.504,5.5043,5.5046,5.5133,5.5421,5.5423,5.5787,5.5569,0,0,0,0,0,0,0,0,0,0,5.5288,5.5213,5.5042,5.5046,5.5135,5.5421,5.5423,5.5559,5.5583,5.5656,0,5.5726,0,5.5765,5.5816,5.5818,0,0,0,5.513,5.5193,5.527,5.5047,5.5138,5.5421,5.5291,5.5572,5.5599,5.5688,5.5731,5.5745,5.5771,5.5819,5.5821,5.626,5.6262,0,0,5.5114,5.5093,5.5251,5.5288,5.5248,5.5281,5.53,5.5589,5.5633,5.5733,5.5753,5.5777,5.5821,5.5824,5.6258,5.626,0,0,0,5.507,5.5082,5.5152,5.5273,5.5325,5.529,5.5311,5.562,5.5645,5.5757,5.5781,5.5823,5.5828,5.6256,5.6259,5.6346,0,0,0,5.506,5.5056,5.5145,5.5135,5.532,5.5477,5.5335,5.5624,5.5658,5.578,5.5823,5.5831,5.6253,5.6257,5.6338,5.639,0,0,0,5.5021,5.5051,5.5094,5.5133,5.5258,5.5473,5.5515,5.5632,5.5673,5.5818,5.5832,5.6252,5.6257,5.6332,5.6379,5.6499,0,0,0,5.4973,5.5166,5.5095,5.5319,5.5255,5.5526,5.5513,5.5715,5.585,5.5825,5.6254,5.6259,5.633,5.6372,5.6492,5.6596,5.6638,0,0,5.5204,5.5193,5.5327,5.5272,5.555,5.5483,5.5773,5.5915,5.5946,5.6152,5.6163,5.6341,5.6378,5.6497,5.688,5.6913,0,0,0,5.5392,5.5488,5.5566,5.5695,5.581,5.5911,5.6012,5.6064,5.6241,5.6049,5.6417,5.644,5.6511,5.6561,5.659,5.6651,5.6281,5.6281,5.628,5.5688,5.572,5.5942,5.6009,5.6133,5.6235,5.6337,5.6424,5.6418,5.6504,5.6566,5.6794,5.6853,5.6874,5.6938,5.6623,5.6624,5.6624,5.6624,5.6029,5.6169,5.6158,5.6369,5.64,5.6576,5.6679,5.6668,5.6834,5.6751,5.6815,5.672,5.691,5.6967,5.6631,5.663,5.6629,5.6628,5.6628,5.6227,5.6299,5.6361,5.655,5.6691,5.6749,5.691,5.6931,5.6952,5.7015,5.7081,5.708,5.708,5.7045,5.7046,5.7047,5.7047,5.7048,5.7048,5.6407,5.6474,5.6609,5.6746,5.6831,5.6945,5.7046,5.7129,5.7225,5.7228,5.7228,5.7212,5.6923,5.685,5.7061,5.7059,5.7057,5.7056,5.7055,5.6741,5.6669,5.6877,5.6962,5.7124,5.7261,5.7286,5.7452,5.7523,5.76,5.7571,5.7354,5.7343,5.732,5.726,5.7565,5.7565,5.7565,5.7565,5.6907,5.6904,5.7122,5.7256,5.7389,5.7433,5.7663,5.7742,5.7812,5.7857,5.7815,5.7737,5.7713,5.7716,5.7685,5.7629,5.8021,5.8021,5.8022,5.7114,5.7125,5.7319,5.739,5.7517,5.7624,5.784,5.7991,5.8055,5.804,5.7892,5.7873,5.7746,5.7703,5.7686,5.7638,5.7535,0,0]}]]